Weather History for Scarborough, Trinidad And Tobago

Change the Weather History Date:

Tuesday, October 1, 2013

  Actual Average Record
Temperature  
Mean Temperature 82 °F -  
Max Temperature 87 °F 86 °F 89 °F (1997)
Min Temperature 77 °F 76 °F 73 °F (1999)
Cooling Degree Days 17    
Growing Degree Days 32 (Base 50)    
Moisture  
Dew Point 74 °F    
Average Humidity 75    
Maximum Humidity 89    
Minimum Humidity 62    
Precipitation  
Precipitation 0.00 in - - ()
Sea Level Pressure  
Sea Level Pressure 29.90 in    
Wind  
Wind Speed 5 mph ()    
Max Wind Speed 18 mph    
Max Gust Speed -    
Visibility 5.4 miles    
Events Rain    
Averages and records for this station are not official NWS values.
T = Trace of Precipitation, MM = Missing Value Source: Averaged Metar Reports

Daily Weather History Graph

Daily Weather History Graph

Search for Another Location

Airport:

Trip Planner

Search our weather history database for the weather conditions in past years. The results will help you decide how hot, cold, wet, or windy it might be!

Date:

Astronomy

Oct. 01, 2013 Rise Set
Actual Time 5:52 AM AST 5:53 PM AST
Civil Twilight 5:31 AM AST 6:14 PM AST
Nautical Twilight 5:06 AM AST 6:39 PM AST
Astronomical Twilight 4:42 AM AST 7:03 PM AST
Moon 2:53 AM AST 3:28 PM AST
Length of Visible Light 12h 43m
Length of Day
12h 01m
Waning Crescent, 12% of the Moon is Illuminated
Oct 1
Waning Crescent
Oct 4
New
Oct 11
First Quarter
Oct 18
Full
Oct 26
Last Quarter

Hourly Weather History & Observations

Time (AST) Temp. Heat Index Dew Point Humidity Pressure Visibility Wind Dir Wind Speed Gust Speed Precip Events Conditions
12:00 AM 80.6 °F 84.6 °F 71.6 °F 74% 29.92 in 6.2 mi ENE 5.8 mph - N/A   Partly Cloudy
1:00 AM 80.6 °F 84.6 °F 71.6 °F 74% 29.92 in 6.2 mi ENE 3.5 mph - N/A   Partly Cloudy
5:00 AM 78.8 °F - 73.4 °F 83% 29.89 in 6.2 mi Calm Calm - N/A   Scattered Clouds
6:00 AM 77.0 °F - 71.6 °F 83% 29.89 in 4.3 mi Calm Calm - N/A   Scattered Clouds
7:00 AM 80.6 °F 84.6 °F 71.6 °F 74% 29.92 in 6.2 mi Calm Calm - N/A   Scattered Clouds
8:00 AM 84.2 °F 89.6 °F 71.6 °F 66% 29.92 in 6.2 mi NE 8.1 mph - N/A   Partly Cloudy
9:00 AM 86.0 °F 93.4 °F 73.4 °F 66% 29.95 in 6.2 mi NNE 6.9 mph - N/A   Partly Cloudy
9:28 AM 86.0 °F 96.9 °F 77.0 °F 74% 29.95 in 2.5 mi East 5.8 mph - N/A   Scattered Clouds
10:00 AM 82.4 °F 88.2 °F 73.4 °F 74% 29.95 in 6.2 mi ENE 9.2 mph - N/A   Scattered Clouds
11:00 AM 84.2 °F 90.9 °F 73.4 °F 70% 29.95 in 6.2 mi NE 9.2 mph - N/A   Scattered Clouds
12:00 PM 86.0 °F 96.9 °F 77.0 °F 74% 29.92 in 6.2 mi NE 12.7 mph - N/A   Partly Cloudy
2:00 PM 84.2 °F 90.9 °F 73.4 °F 70% 29.86 in 6.2 mi NNE 8.1 mph - N/A   Scattered Clouds
3:00 PM 86.0 °F 93.4 °F 73.4 °F 66% 29.83 in 6.2 mi East 13.8 mph - N/A   Scattered Clouds
4:00 PM 87.8 °F 95.6 °F 73.4 °F 62% 29.83 in 6.2 mi East 15.0 mph - N/A   Mostly Cloudy
5:00 PM 82.4 °F 89.5 °F 75.2 °F 79% 29.83 in 6.2 mi NNE 12.7 mph - N/A   Mostly Cloudy
6:00 PM 80.6 °F 86.2 °F 75.2 °F 84% 29.86 in 6.2 mi NNE 8.1 mph - N/A   Mostly Cloudy
8:00 PM 80.6 °F 85.4 °F 73.4 °F 79% 29.89 in 6.2 mi Calm Calm - N/A   Mostly Cloudy
9:00 PM 78.8 °F - 73.4 °F 83% 29.89 in 6.2 mi Calm Calm - N/A   Mostly Cloudy
10:00 PM 78.8 °F - 73.4 °F 83% 29.92 in 1.2 mi Calm Calm - N/A Rain Rain Showers
11:00 PM 78.8 °F - 75.2 °F 89% 29.92 in 1.2 mi East 18.4 mph - N/A Rain Rain Showers